Current Version              Previous Version:    01  02  03  04  05  06  07  08  09  10  11  12  13  14  15  16  17  18  19  20  21  22  23  24  25  26  27  28  29  30  
   31  32  33  34  35  36  37  38  39  40  41  42  43  44  45  46  47  48  49  50  51  52  53  54  55  56  57  58  59  60  

[Printable]
443
ASUS44 KLUB 310401
RWRTX
WEST TEXAS WEATHER ROUNDUP
NATIONAL WEATHER SERVICE LUBBOCK TX
1100 PM CDT THU OCT 30 2014

NOTE: "FAIR" INDICATES FEW OR NO CLOUDS BELOW 12,000 FEET WITH NO
SIGNIFICANT WEATHER AND/OR OBSTRUCTIONS TO VISIBILITY.

TXZ004-006>008-010-012-014-016-OKZ002-310500-
TEXAS PANHANDLE/OKLAHOMA PANHANDLE

CITY           SKY/WX    TMP DP  RH WIND       PRES   REMARKS
AMARILLO       CLEAR     48  31  51 E6        30.35R
BORGER         CLEAR     56  29  35 NE6       30.34R
CANADIAN       CLEAR     45  35  67 CALM      30.31R
DALHART        CLEAR     48  29  47 NE10      30.38R
DUMAS            N/A     46  28  49 N5        30.36R
GUYMON         CLEAR     49  29  46 N7        30.35R
HEREFORD       CLEAR     44  36  73 CALM      30.36R
PAMPA          CLEAR     48  31  50 NE9       30.34R
$$

TXZ026-029-035-045-048-310500-
SOUTHERN PANHANDLE/SOUTH PLAINS/ROLLING PLAINS

CITY           SKY/WX    TMP DP  RH WIND       PRES   REMARKS
CHILDRESS      CLEAR     62  31  31 NE7       30.29R
LUBBOCK        CLEAR     51  33  50 NE9       30.30R
SNYDER         CLEAR     64  45  50 NE13      30.26R
$$

TXZ052-054-060>062-072-078-127-140-154-169-310500-
PERMIAN BASIN/CONCHO VALLEY/BIG COUNTRY/EDWARDS PLATEAU

CITY           SKY/WX    TMP DP  RH WIND       PRES   REMARKS
ABILENE        MOCLDY    70  52  52 NE13      30.23R
BIG SPRING     CLEAR     66  53  62 NE15      30.26R
JUNCTION       PTCLDY    71  58  63 E3        30.13R
MIDLAND        CLEAR     67  56  67 NE16      30.23R
ODESSA         CLEAR     66  53  63 NE14      30.24R
SAN ANGELO     MOCLDY    74  57  55 NE16G24   30.18R
SONORA         CLEAR     64  55  72 N5        30.18R
WINK           CLEAR     61  45  55 N10       30.21R
$$

TXZ055-058-074-075-080-082-310500-
FAR WEST/SOUTHWEST MOUNTAINS/TRANS PECOS

CITY           SKY/WX    TMP DP  RH WIND       PRES   REMARKS
ALPINE         CLEAR     52  35  52 S3        30.34R
DRYDEN           N/A     69  60  73 NE7       30.13R
EL PASO        PTCLDY    67  33  28 N9        30.22R
FORT STOCKTON  CLEAR     63  38  39 N6        30.21R
MARFA          CLEAR     57  34  41 N10       30.30S
PECOS          CLEAR     64  44  47 N8        30.22R
PRESIDIO       FAIR      75  35  22 N17       30.14R
$$

TXZ014-016-019-021>030-083-310500
TEXAS TECH WEST TEXAS MESONET/TEXAS PANHANDLE/NORTHERN SOUTH PLAINS

CITY           SKY/WX    TMP DP  RH WIND       PRES   REMARKS
ABERNATHY 5ENE   N/A     45  34  65 N6        30.32R
AMARILLO 9NNE    N/A     47  30  53 E3        30.34R
AMARILLO 7SSE    N/A     47  33  57 NE5       30.35R
AMHERST 1NE      N/A     50  31  48 NE9       30.32R
BOOTLEG 11WNW    N/A     49  27  43 E7        30.39R
CANADIAN 6E      N/A     48  31  51 N12       30.29R
CAPROCK CYN SP   N/A     58  31  36 N3        30.31R
CHILDRESS 2NNE   N/A     57  32  38 N6        30.27R
CLARENDON 2WSW   N/A     47  31  53 N2        30.31R
CLAUDE 12SW      N/A     48  33  57 NE10      30.33R
DIMMITT 2NE      N/A     44  32  62 NE8       30.35R
FLOYDADA 2NNE    N/A     49  31  49 N8        30.30R
FRIONA 2NE       N/A     44  31  61 CALM      30.36R
GOODLETT 3W      N/A     56  33  42 N9        30.25R
HART 3N          N/A     43  34  70 N8        30.34R
HEREFORD 2NW     N/A     44  32  62 NE2       30.35R
MCLEAN 1E        N/A     56  28  34 N8        30.30R
MEMPHIS 1NE      N/A     54  33  43 N8        30.28R
MULESHOE 2SSW    N/A     44  30  58 NE5       30.34R
OLTON 6S         N/A     46  32  57 N8        30.33R
PALO DURO SP     N/A     53  31  43 N3        30.34R
PAMPA 2E         N/A     49  30  48 N5        30.33R
PLAINVIEW 1S     N/A     54  31  41 NE7       30.31R
SILVERTON 7ESE   N/A     51  31  46 N9        30.32R
TULIA 2ENE       N/A     47  32  56 N7        30.33R
TURKEY 2WSW      N/A     55  32  42 N7        30.29R
UMBARGER 3NNE    N/A     48  31  51 NE1       30.35R
$$

TXZ033>036-039>041-045>048-310500
TEXAS TECH WEST TEXAS MESONET/SOUTH PLAINS

CITY           SKY/WX    TMP DP  RH WIND       PRES   REMARKS
AIKEN 3WSW       N/A     46  33  60 NE7       30.33R
ANDREWS 2NE      N/A     62  51  67 NE8       30.26R
ANTON 6SSW       N/A     53  33  48 NE10      30.31R
BROWNFIELD 2S    N/A     56  37  48 NE8       30.30R
DENVR CTY 7WNW   N/A     51  40  66 NE8       30.31R
GAIL 2ESE        N/A     63  44  50 NE9       30.25R
LAMESA 2SE       N/A     61  43  52 NE9       30.27R
LEVELLAND 4S     N/A     47  32  56 N7        30.31R
LUBBOCK 3WNW     N/A     57  32  39 NE7       30.31R
MORTON 1ENE      N/A     47  32  55 N7        30.33R
ODONNELL 1N      N/A     60  35  38 NE12      30.28R
PLAINS 3N        N/A     52  35  52 NE7       30.32R
RALLS 1SE        N/A     50  32  49 NE7       30.31R
REESE CENTER     N/A     52  32  47 NE6       30.31R
SEMINOLE 2NNE    N/A     56  47  72 N7        30.29R
SLATON 2NE       N/A     57  31  37 NE8       30.30R
SNYDER 3E        N/A     64  41  43 NE12      30.25R
SUNDOWN 8SW      N/A     46  33  61 N8        30.31R
TAHOKA 3NNE      N/A     56  34  43 NE8       30.29R
WOLFFORTH 6SSW   N/A     55  34  43 NE8       30.30R
$$

TXZ031-032-036>038-042>044-310500-
TEXAS TECH WEST TEXAS MESONET/ROLLING PLAINS

CITY           SKY/WX    TMP DP  RH WIND       PRES   REMARKS
ASPERMONT 3NE    N/A     60  35  38 NE6       30.24R
FLUVANNA 3WNW    N/A     62  39  42 NE13      30.26R
GRAHAM 5SSW      N/A     60  34  38 NE16      30.28R
GUTHRIE 10WSW    N/A     56  32  39 N2        30.25R
HASKELL 1NW      N/A     56  37  49 NE7       30.23R
JAYTON 1SSE      N/A     60  35  39 NE6       30.25R
KNOX CITY 3NW    N/A     61  32  34 NE7       30.24R
LK A HENRY 1NW   N/A     62  35  36 NE10      30.26R
NORTHFIELD 1S    N/A     58  32  37 N2        30.28R
ODELL 4ENE       N/A     52  36  54 N6        30.25R
PADUCAH 10SW     N/A     55  33  42 N5        30.26R
POST 1NE         N/A     57  36  44 N6        30.28R
RRING SPRGS 3N   N/A     56  33  40 N7        30.29R
SEYMOUR 3NW      N/A     54  38  54 N2        30.23R
SPUR 1W          N/A     57  31  37 NE2       30.26R
WEINERT 2NNE     N/A     57  36  45 NE6       30.24R
WHITE RVR 6NE    N/A     57  32  39 N12       30.28R
$$

TXZ052-054-060>062-072-078-127-140-154-169-310500-
TEXAS TECH WEST TEXAS MESONET/PERMIAN BASIN/
CONCHO VALLEY/BIG COUNTRY/EDWARDS PLATEAU

CITY           SKY/WX    TMP DP  RH WIND       PRES   REMARKS
COYANOSA 2N      N/A     63  44  49 N5        30.20R
JUNCTION 1SSW    N/A     70  58  66 S3        30.13R
MERTZON 3NNE     N/A     72  58  61 NE10      30.19R
SAN ANGELO 7NW   N/A     73  56  57 NE14      30.18R
STRLNG CT 4WSW   N/A     70  57  64 NE5       30.22R
ST LAWRNCE 5SW   N/A     68  55  64 NE15      30.21R
SWEETWATR 11SW   N/A     64  53  66 NE12      30.25R
WALL 1E          N/A     73  56  55 NE13      30.18R
$$

TXZ055-058-074-075-080-082-310500-
TEXAS TECH WEST TEXAS MESONET/FAR WEST/SOUTHWEST MOUNTAINS/TRANS PECOS

CITY           SKY/WX    TMP DP  RH WIND       PRES   REMARKS
PRSMN GAP BBNP   N/A     74  57  55 N13       30.15R
GUADLPE MTN NP   N/A     58  41  54 NE12      30.37R
$$



422
ASUS44 KFWD 310401
RWRTX
NORTH TEXAS HOURLY WEATHER ROUNDUP
NATIONAL WEATHER SERVICE FORT WORTH TX
1100 PM CDT THU OCT 30 2014

NOTE: "FAIR" INDICATES FEW OR NO CLOUDS BELOW 12,000 FEET WITH NO
SIGNIFICANT WEATHER AND/OR OBSTRUCTIONS TO VISIBILITY.

TXZ118-119-310500-
DALLAS/FORT WORTH METROPLEX

CITY           SKY/WX    TMP DP  RH WIND       PRES   REMARKS
DFW AIRPORT    PTCLDY    64  57  78 NW12      30.15R
DALLAS LOVE    CLEAR     63  58  83 N5        30.15R
FTW MEACHAM    CLEAR     66  55  67 N8        30.16R
DAL-EXECUTIVE  CLEAR     63  55  75 NW7       30.14R
FTW-ALLIANCE   PTCLDY    62  53  72 N8        30.17R
FTW-NAS-JRB    PTCLDY    68  58  70 NW8       30.21R
ARLINGTON      CLEAR     60  55  83 NW3       30.16R
GRAND PRAIRIE  CLEAR     65  57  76 CALM      30.16R
ADDISON        CLEAR     65  62  87 NW5       30.17R
MESQUITE       CLEAR     61  59  93 CALM      30.14R
LANCASTER      CLEAR     62  53  71 CALM      30.15R
$$

TXZ091>094-102>105-117-120-121-131>134-310500-
NORTH CENTRAL TEXAS

CITY           SKY/WX    TMP DP  RH WIND       PRES   REMARKS
SHRMAN/DENISON CLEAR     58  47  67 N3        30.18R
BRIDGEPORT     CLEAR     62  45  53 N3        30.21R
DECATUR        CLEAR     61  42  49 N5        30.19R
DENTON         CLEAR     58  52  80 NW3       30.17R
MCKINNEY       CLEAR     58  53  84 NW6       30.15R
ROCKWALL       CLEAR     60  57  88 NW3       30.14R
TERRELL        CLEAR     60  56  86 CALM      30.14R
WAXAHACHIE     PTCLDY    60  55  83 CALM      30.16R
CLEBURNE       CLEAR     63  63 100 CALM      30.17R
GRANBURY       PTCLDY    65  63  93 W3        30.19R FOG
$$

TXZ083>090-098>101-113>116-127>130-139>142-154-155-310500-
WESTERN NORTH TEXAS

CITY           SKY/WX    TMP DP  RH WIND       PRES   REMARKS
WICHITA FALLS  CLEAR     57  37  47 N8        30.21R
WF-KICKAPOO    CLEAR     60  36  39 N6        30.23R
ABILENE        MOCLDY    70  52  52 NE13      30.23R
ABILENE-DYESS  MOCLDY    68  56  64 NE12      30.22R
MINERAL WELLS  MOCLDY    63  61  93 CALM      30.18R
STEPHENVILLE   PTCLDY    65  61  87 N3        30.21R
COMANCHE       CLOUDY    66  66 100 N5        30.19R
COLEMAN        MOCLDY    69  62  77 NE10      30.20R
$$

TXZ143>147-156>162-174-175-310500-
CENTRAL TEXAS

CITY           SKY/WX    TMP DP  RH WIND       PRES   REMARKS
WACO           CLOUDY    65  56  72 N3        30.13R
WACO-TSTC      MOCLDY    64  57  77 CALM        N/A
WACO-MCGREGOR  MOCLDY    66  52  59 N3        30.15R
CORSICANA      CLOUDY    63  52  67 CALM      30.14R
MEXIA          MOCLDY    61  56  81 NE3       30.12R
HEARNE         PTCLDY    62  55  78 CALM      30.12S
TEMPLE         MOCLDY    66  52  59 E6        30.12R
KILLEEN        NOT AVBL
KILLEEN-SKYLRK MOCLDY    66  54  63 CALM      30.11R
GATESVILLE     PTCLDY    66  55  68 CALM      30.17R
HAMILTON       CLOUDY    66  59  79 N5        30.18R
LAMPASAS       MOCLDY    71  61  71 CALM      30.13R
$$

TXZ095>097-106>112-122>126-135>138-148>153-164>167-310500-
EAST TEXAS

CITY           SKY/WX    TMP DP  RH WIND       PRES   REMARKS
PARIS          CLEAR     59  45  58 CALM      30.13R
SULPHUR SPRNGS CLEAR     61  51  70 W6        30.15R
MOUNT PLEASANT CLEAR     54  53  95 CALM      30.12S
MINEOLA        CLEAR     57  52  82 CALM      30.13R
TYLER          CLEAR     61  52  72 CALM      30.11R
LONGVIEW       CLEAR     54  50  86 CALM      30.10R
MARSHALL       CLEAR     53  51  90 CALM      30.12R
ATHENS         PTCLDY    57  54  88 CALM      30.12R
PALESTINE      PTCLDY    62  56  82 CALM      30.13R
JACKSONVILLE   MOCLDY    66  45  45 CALM      30.14R
HENDERSON      CLEAR     52  51  96 CALM      30.12S
NACOGDOCHES    PTCLDY    54  48  82 CALM      30.12R
LUFKIN         CLEAR     58  51  78 NW3       30.11R
$$

SUPPLEMENTAL OBSERVATIONS (CENTRAL)

CITY           SKY/WX    TMP DP  RH WIND       PRES   REMARKS
$$

SUPPLEMENTAL OBSERVATIONS (WEST)

CITY           SKY/WX    TMP DP  RH WIND       PRES   REMARKS
$$

SUPPLEMENTAL OBSERVATIONS (EAST)

CITY           SKY/WX    TMP DP  RH WIND       PRES   REMARKS
$$

SUPPLEMENTAL OBSERVATIONS ARE A COLLECTION OF AUTOMATED INSTRUMENTS
THAT ARE MAINTAINED BY A VARIETY OF FEDERAL AND STATE AGENCIES.
CERTAIN ELEMENTS...SUCH AS HUMIDITY VALUES AND SUSTAINED WIND
SPEEDS...MAY BE APPROXIMATED.